| time (UTC) | temp F | wind direction | speed MPH | gust MPH | rain 1hr in | rain 24hr in | rain mn in | humidity % | barometer mb |
| 20260831085023 | 69 | 174 | 1.0 | 6.0 | 0.00 | 0.01 | 0.01 | 95 | 1013.4 |
| 20260831084020 | 68 | 169 | 2.0 | 6.0 | 0.00 | 0.01 | 0.01 | 96 | 1013.2 |
| 20260831083035 | 68 | 156 | 1.0 | 7.0 | 0.00 | 0.01 | 0.01 | 97 | 1013.4 |
| 20260831082031 | 67 | 162 | 2.0 | 4.0 | 0.00 | 0.01 | 0.01 | 96 | 1013.5 |
| 20260831081027 | 68 | 134 | 1.0 | 2.0 | 0.00 | 0.01 | 0.01 | 95 | 1013.3 |
| 20260831080023 | 68 | 162 | 1.0 | 3.0 | 0.00 | 0.01 | 0.01 | 94 | 1013.3 |
| 20260831075039 | 68 | 142 | 1.0 | 4.0 | 0.00 | 0.01 | 0.01 | 92 | 1013.4 |
| 20260831074015 | 70 | 136 | 1.0 | 3.0 | 0.00 | 0.01 | 0.01 | 92 | 1013.2 |
| 20260831073030 | 70 | 273 | 0.0 | 1.0 | 0.00 | 0.01 | 0.01 | 92 | 1013.3 |
| 20260831072027 | 70 | 273 | 0.0 | 1.0 | 0.01 | 0.01 | 0.01 | 91 | 1013.5 |
| 20260831071020 | 71 | 134 | 0.0 | 1.0 | 0.01 | 0.01 | 0.01 | 91 | 1013.8 |
| 20260831070019 | 71 | 195 | 0.0 | 1.0 | 0.01 | 0.01 | 0.01 | 91 | 1014.0 |
| 20260831065034 | 71 | 270 | 0.0 | 1.0 | 0.01 | 0.01 | 0.01 | 91 | 1014.4 |
| 20260831063028 | 71 | 272 | 0.0 | 3.0 | 0.01 | 0.01 | 0.01 | 90 | 1014.5 |
| 20260831062024 | 72 | 265 | 0.0 | 2.0 | 0.00 | 0.00 | 0.00 | 89 | 1014.6 |
| 20260831061023 | 72 | 279 | 1.0 | 4.0 | 0.00 | 0.00 | 0.00 | 88 | 1014.6 |
| 20260831060038 | 72 | 275 | 1.0 | 4.0 | 0.00 | 0.00 | 0.00 | 88 | 1014.6 |
| 20260831055032 | 72 | 255 | 0.0 | 2.0 | 0.00 | 0.00 | 0.00 | 88 | 1014.6 |
| 20260831054026 | 72 | 251 | 1.0 | 3.0 | 0.00 | 0.00 | 0.00 | 89 | 1014.5 |
| 20260831053102 | 71 | 232 | 0.0 | 2.0 | 0.00 | 0.00 | 0.00 | 89 | 1014.5 |
| 20260831052017 | 71 | 266 | 0.0 | 2.0 | 0.00 | 0.00 | 0.00 | 88 | 1014.2 |
| 20260831051034 | 71 | 204 | 0.0 | 1.0 | 0.00 | 0.00 | 0.00 | 88 | 1013.9 |
| 20260831050032 | 70 | 151 | 0.0 | 1.0 | 0.00 | 0.00 | 0.00 | 89 | 1013.8 |
| 20260831045027 | 70 | 252 | 0.0 | 1.0 | 0.00 | 0.00 | 0.00 | 88 | 1014.1 |
| 20260831044024 | 70 | 134 | 0.0 | 1.0 | 0.00 | 0.00 | 0.00 | 88 | 1013.8 |
| 20260831043042 | 70 | 132 | 0.0 | 1.0 | 0.00 | 0.00 | 0.00 | 87 | 1014.0 |
| 20260831042019 | 71 | 139 | 0.0 | 1.0 | 0.00 | 0.00 | 0.00 | 87 | 1014.1 |
| 20260831041034 | 70 | 137 | 0.0 | 1.0 | 0.00 | 0.00 | 0.00 | 86 | 1014.3 |
| 20260831040051 | 71 | 0.0 | 0.0 | 0.00 | 0.00 | 0.00 | 85 | 1014.5 | |
| 20260831035028 | 71 | 133 | 0.0 | 1.0 | 0.00 | 0.00 | 0.00 | 85 | 1014.3 |
| 20260831034024 | 72 | 135 | 0.0 | 1.0 | 0.00 | 0.00 | 0.00 | 85 | 1013.9 |
| 20260831033021 | 72 | 122 | 0.0 | 1.0 | 0.00 | 0.00 | 0.00 | 84 | 1014.0 |
| 20260831032018 | 73 | 122 | 0.0 | 1.0 | 0.00 | 0.00 | 0.00 | 83 | 1014.0 |
| 20260831031036 | 73 | 127 | 0.0 | 1.0 | 0.00 | 0.00 | 0.00 | 81 | 1013.9 |
| 20260831030031 | 74 | 119 | 0.0 | 1.0 | 0.00 | 0.00 | 0.00 | 82 | 1013.9 |
| 20260831025049 | 74 | 256 | 0.0 | 1.0 | 0.00 | 0.00 | 0.00 | 82 | 1014.0 |
| 20260831024025 | 74 | 263 | 1.0 | 3.0 | 0.00 | 0.00 | 0.00 | 81 | 1014.0 |
| 20260831023022 | 75 | 265 | 1.0 | 4.0 | 0.00 | 0.00 | 0.00 | 81 | 1013.8 |
| 20260831022020 | 75 | 249 | 2.0 | 9.0 | 0.00 | 0.00 | 0.00 | 80 | 1013.9 |
| 20260831021015 | 75 | 241 | 2.0 | 6.0 | 0.00 | 0.00 | 0.00 | 79 | 1013.9 |
| 20260831020034 | 76 | 250 | 2.0 | 7.0 | 0.00 | 0.00 | 0.00 | 79 | 1014.0 |
| 20260831015029 | 76 | 228 | 2.0 | 8.0 | 0.00 | 0.00 | 0.00 | 78 | 1013.9 |
| 20260831014026 | 76 | 256 | 2.0 | 6.0 | 0.00 | 0.00 | 0.00 | 77 | 1013.7 |
| 20260831013023 | 76 | 243 | 2.0 | 7.0 | 0.00 | 0.00 | 0.00 | 77 | 1013.5 |
| 20260831012019 | 77 | 254 | 1.0 | 6.0 | 0.00 | 0.00 | 0.00 | 76 | 1013.5 |
| 20260831011016 | 77 | 267 | 1.0 | 7.0 | 0.00 | 0.00 | 0.00 | 76 | 1013.5 |
| 20260831010033 | 77 | 256 | 1.0 | 4.0 | 0.00 | 0.00 | 0.00 | 75 | 1013.2 |
| 20260831005030 | 78 | 252 | 1.0 | 7.0 | 0.00 | 0.00 | 0.00 | 75 | 1013.2 |
| 20260831004027 | 78 | 255 | 1.0 | 3.0 | 0.00 | 0.00 | 0.00 | 74 | 1013.0 |
| 20260831003023 | 78 | 267 | 1.0 | 3.0 | 0.00 | 0.00 | 0.00 | 73 | 1012.8 |
| 20260831002020 | 79 | 249 | 1.0 | 6.0 | 0.00 | 0.00 | 0.00 | 73 | 1012.7 |
| 20260831001017 | 79 | 247 | 2.0 | 4.0 | 0.00 | 0.00 | 0.00 | 72 | 1012.8 |
| 20260831000054 | 80 | 244 | 2.0 | 9.0 | 0.00 | 0.00 | 0.00 | 71 | 1012.8 |
| 20260830235031 | 80 | 235 | 2.0 | 6.0 | 0.00 | 0.00 | 0.00 | 70 | 1012.8 |
| 20260830234027 | 81 | 240 | 3.0 | 8.0 | 0.00 | 0.00 | 0.00 | 69 | 1012.8 |
| 20260830233024 | 81 | 210 | 2.0 | 6.0 | 0.00 | 0.00 | 0.00 | 68 | 1012.8 |
| 20260830232021 | 82 | 230 | 3.0 | 9.0 | 0.00 | 0.00 | 0.00 | 66 | 1012.7 |
| 20260830231018 | 83 | 244 | 2.0 | 4.0 | 0.00 | 0.00 | 0.00 | 65 | 1012.6 |
| 20260830230035 | 83 | 239 | 2.0 | 7.0 | 0.00 | 0.00 | 0.00 | 64 | 1012.4 |
| 20260830225032 | 84 | 239 | 3.0 | 8.0 | 0.00 | 0.00 | 0.00 | 63 | 1012.4 |
| 20260830224048 | 85 | 204 | 2.0 | 7.0 | 0.00 | 0.00 | 0.00 | 61 | 1012.1 |
| 20260830223025 | 85 | 245 | 1.0 | 4.0 | 0.00 | 0.00 | 0.00 | 61 | 1012.0 |
| 20260830222042 | 85 | 275 | 3.0 | 8.0 | 0.00 | 0.00 | 0.00 | 60 | 1012.1 |
| 20260830221019 | 86 | 248 | 2.0 | 8.0 | 0.00 | 0.00 | 0.00 | 60 | 1012.2 |
| 20260830220016 | 86 | 265 | 3.0 | 7.0 | 0.00 | 0.00 | 0.00 | 58 | 1012.1 |
| 20260830215032 | 87 | 272 | 2.0 | 9.0 | 0.00 | 0.00 | 0.00 | 59 | 1012.0 |
| 20260830214029 | 87 | 258 | 2.0 | 7.0 | 0.00 | 0.00 | 0.00 | 59 | 1011.9 |
| 20260830213026 | 87 | 262 | 2.0 | 6.0 | 0.00 | 0.00 | 0.00 | 58 | 1011.9 |
| 20260830212143 | 88 | 267 | 2.0 | 4.0 | 0.00 | 0.00 | 0.00 | 56 | 1011.7 |
| 20260830211021 | 87 | 291 | 2.0 | 9.0 | 0.00 | 0.00 | 0.00 | 58 | 1011.7 |
| 20260830210016 | 86 | 268 | 3.0 | 10.0 | 0.00 | 0.00 | 0.00 | 59 | 1011.8 |
| 20260830205033 | 87 | 262 | 3.0 | 8.0 | 0.00 | 0.00 | 0.00 | 59 | 1011.9 |
| 20260830204030 | 86 | 277 | 3.0 | 10.0 | 0.00 | 0.00 | 0.00 | 59 | 1012.0 |
| 20260830203027 | 85 | 265 | 4.0 | 13.0 | 0.00 | 0.00 | 0.00 | 61 | 1012.1 |
| 20260830202023 | 85 | 283 | 3.0 | 9.0 | 0.00 | 0.00 | 0.00 | 62 | 1012.2 |
| 20260830201019 | 84 | 279 | 3.0 | 9.0 | 0.00 | 0.01 | 0.00 | 64 | 1012.2 |
| 20260830200038 | 78 | 267 | 3.0 | 13.0 | 0.00 | 0.01 | 0.00 | 74 | 1012.2 |
| 20260830195215 | 77 | 127 | 2.0 | 6.0 | 0.00 | 0.01 | 0.00 | 78 | 1012.3 |
| 20260830194029 | 77 | 142 | 3.0 | 7.0 | 0.00 | 0.01 | 0.00 | 78 | 1012.4 |
| 20260830193026 | 77 | 130 | 2.0 | 7.0 | 0.00 | 0.01 | 0.00 | 77 | 1012.5 |
| 20260830192022 | 78 | 133 | 2.0 | 7.0 | 0.00 | 0.02 | 0.00 | 77 | 1012.6 |
| 20260830191019 | 77 | 160 | 3.0 | 6.0 | 0.00 | 0.02 | 0.00 | 78 | 1012.4 |
| 20260830190016 | 78 | 167 | 2.0 | 8.0 | 0.00 | 0.02 | 0.00 | 76 | 1012.2 |
| 20260830185032 | 80 | 136 | 2.0 | 8.0 | 0.00 | 0.02 | 0.00 | 73 | 1012.2 |
| 20260830184029 | 80 | 192 | 3.0 | 8.0 | 0.00 | 0.03 | 0.00 | 74 | 1012.0 |
| 20260830183026 | 80 | 194 | 3.0 | 10.0 | 0.00 | 0.03 | 0.00 | 74 | 1012.1 |
| 20260830182023 | 79 | 185 | 5.0 | 13.0 | 0.00 | 0.03 | 0.00 | 75 | 1012.2 |
| 20260830181019 | 79 | 181 | 5.0 | 13.0 | 0.00 | 0.03 | 0.00 | 74 | 1012.1 |
| 20260830180016 | 80 | 177 | 4.0 | 11.0 | 0.00 | 0.04 | 0.00 | 72 | 1012.1 |
| 20260830175033 | 79 | 178 | 4.0 | 10.0 | 0.00 | 0.04 | 0.00 | 73 | 1012.2 |
| 20260830174030 | 79 | 177 | 4.0 | 10.0 | 0.00 | 0.04 | 0.00 | 73 | 1012.3 |
| 20260830173048 | 79 | 168 | 4.0 | 10.0 | 0.00 | 0.04 | 0.00 | 73 | 1012.4 |
| 20260830172024 | 78 | 177 | 4.0 | 10.0 | 0.00 | 0.04 | 0.00 | 75 | 1012.4 |
| 20260830171020 | 78 | 163 | 5.0 | 10.0 | 0.00 | 0.04 | 0.00 | 76 | 1012.5 |
| 20260830170017 | 77 | 179 | 4.0 | 11.0 | 0.00 | 0.04 | 0.00 | 76 | 1012.6 |
| 20260830165034 | 77 | 186 | 4.0 | 9.0 | 0.00 | 0.04 | 0.00 | 75 | 1012.8 |
| 20260830164030 | 77 | 168 | 3.0 | 11.0 | 0.00 | 0.04 | 0.00 | 75 | 1012.7 |
| 20260830163027 | 77 | 172 | 3.0 | 10.0 | 0.00 | 0.04 | 0.00 | 75 | 1012.9 |
| 20260830162024 | 77 | 185 | 3.0 | 8.0 | 0.00 | 0.04 | 0.00 | 75 | 1013.0 |
| 20260830161101 | 77 | 169 | 4.0 | 10.0 | 0.00 | 0.04 | 0.00 | 75 | 1013.0 |
| 20260830160018 | 77 | 172 | 4.0 | 11.0 | 0.00 | 0.04 | 0.00 | 76 | 1012.9 |
| 20260830155034 | 76 | 161 | 4.0 | 9.0 | 0.00 | 0.04 | 0.00 | 76 | 1013.0 |
| 20260830154032 | 77 | 171 | 3.0 | 10.0 | 0.00 | 0.04 | 0.00 | 75 | 1013.2 |
| 20260830153028 | 77 | 169 | 4.0 | 10.0 | 0.00 | 0.04 | 0.00 | 75 | 1013.3 |
| 20260830152027 | 76 | 191 | 4.0 | 10.0 | 0.00 | 0.04 | 0.00 | 78 | 1013.3 |
| 20260830151023 | 76 | 191 | 4.0 | 10.0 | 0.00 | 0.04 | 0.00 | 76 | 1013.4 |
| 20260830150039 | 78 | 181 | 4.0 | 10.0 | 0.00 | 0.04 | 0.00 | 72 | 1013.2 |
| 20260830145036 | 78 | 177 | 4.0 | 13.0 | 0.00 | 0.04 | 0.00 | 72 | 1013.1 |
| 20260830144033 | 78 | 173 | 3.0 | 10.0 | 0.00 | 0.04 | 0.00 | 72 | 1013.3 |
| 20260830143029 | 77 | 180 | 3.0 | 8.0 | 0.00 | 0.04 | 0.00 | 73 | 1013.2 |
| 20260830142046 | 77 | 182 | 4.0 | 9.0 | 0.00 | 0.04 | 0.00 | 73 | 1013.3 |
| 20260830141023 | 76 | 192 | 4.0 | 11.0 | 0.00 | 0.04 | 0.00 | 76 | 1013.2 |
| 20260830140020 | 75 | 183 | 5.0 | 11.0 | 0.00 | 0.04 | 0.00 | 76 | 1013.3 |
| 20260830135016 | 75 | 183 | 4.0 | 10.0 | 0.00 | 0.04 | 0.00 | 78 | 1013.3 |
| 20260830134053 | 73 | 176 | 4.0 | 9.0 | 0.00 | 0.04 | 0.00 | 81 | 1013.5 |
| 20260830133030 | 72 | 179 | 4.0 | 9.0 | 0.00 | 0.04 | 0.00 | 83 | 1013.6 |
| 20260830132026 | 71 | 180 | 3.0 | 13.0 | 0.00 | 0.04 | 0.00 | 86 | 1013.6 |
| 20260830131023 | 70 | 193 | 2.0 | 10.0 | 0.00 | 0.04 | 0.00 | 88 | 1013.8 |
| 20260830130019 | 70 | 181 | 3.0 | 10.0 | 0.00 | 0.04 | 0.00 | 89 | 1013.7 |
| 20260830125035 | 70 | 177 | 3.0 | 10.0 | 0.00 | 0.04 | 0.00 | 89 | 1013.6 |
| 20260830124033 | 70 | 171 | 3.0 | 8.0 | 0.00 | 0.04 | 0.00 | 88 | 1013.6 |
| 20260830123028 | 70 | 185 | 3.0 | 10.0 | 0.00 | 0.04 | 0.00 | 88 | 1013.6 |
| 20260830122025 | 70 | 189 | 3.0 | 7.0 | 0.00 | 0.04 | 0.00 | 87 | 1013.7 |
| 20260830121042 | 69 | 186 | 3.0 | 8.0 | 0.00 | 0.04 | 0.00 | 88 | 1013.6 |
| 20260830120038 | 69 | 173 | 2.0 | 7.0 | 0.00 | 0.04 | 0.00 | 89 | 1013.5 |
| 20260830115035 | 68 | 179 | 1.0 | 4.0 | 0.00 | 0.04 | 0.00 | 89 | 1013.5 |
| 20260830114031 | 68 | 180 | 1.0 | 3.0 | 0.00 | 0.04 | 0.00 | 90 | 1013.5 |
| 20260830113029 | 68 | 150 | 1.0 | 4.0 | 0.00 | 0.04 | 0.00 | 90 | 1013.5 |
| 20260830112025 | 68 | 155 | 1.0 | 3.0 | 0.00 | 0.04 | 0.00 | 90 | 1013.4 |
| 20260830111022 | 68 | 166 | 1.0 | 3.0 | 0.00 | 0.04 | 0.00 | 90 | 1013.5 |
| 20260830110020 | 68 | 158 | 1.0 | 6.0 | 0.00 | 0.04 | 0.00 | 91 | 1013.3 |
| 20260830105035 | 68 | 177 | 1.0 | 3.0 | 0.00 | 0.04 | 0.00 | 91 | 1013.2 |
| 20260830104032 | 68 | 172 | 1.0 | 6.0 | 0.00 | 0.04 | 0.00 | 90 | 1013.3 |
| 20260830103028 | 68 | 179 | 1.0 | 4.0 | 0.00 | 0.04 | 0.00 | 87 | 1013.3 |
| 20260830102025 | 69 | 158 | 1.0 | 3.0 | 0.00 | 0.04 | 0.00 | 86 | 1013.4 |
| 20260830101021 | 69 | 163 | 0.0 | 2.0 | 0.00 | 0.04 | 0.00 | 85 | 1013.3 |
| 20260830100019 | 70 | 148 | 0.0 | 1.0 | 0.00 | 0.04 | 0.00 | 84 | 1013.4 |
| 20260830095034 | 70 | 129 | 0.0 | 2.0 | 0.00 | 0.04 | 0.00 | 83 | 1013.5 |
| 20260830094053 | 71 | 208 | 0.0 | 1.0 | 0.00 | 0.04 | 0.00 | 83 | 1013.5 |
| 20260830093028 | 71 | 196 | 0.0 | 2.0 | 0.00 | 0.04 | 0.00 | 82 | 1013.5 |
| 20260830092046 | 71 | 181 | 1.0 | 2.0 | 0.00 | 0.04 | 0.00 | 82 | 1013.5 |
| 20260830091020 | 71 | 196 | 0.0 | 2.0 | 0.00 | 0.04 | 0.00 | 82 | 1013.5 |
| 20260830090018 | 71 | 177 | 1.0 | 6.0 | 0.00 | 0.04 | 0.00 | 82 | 1013.5 |
| 20260830085034 | 71 | 213 | 1.0 | 4.0 | 0.00 | 0.04 | 0.00 | 82 | 1013.5 |